STARLINK-11529, 62599

Orbit data source: Space-Track

STARLINK-11529, 62599 is a payload satellite owned by SpaceX/Seattle (US) in LEO that was launched on Mon, 13 Jan 2025 UTC via an FALCON 9 launch vehicle from the Air Force Eastern Test Range (AFETR). Payload-class satellites include a variety of spacecraft equipped with specific instruments for various scientific and technological missions. These include communications satellites like Starlink; space stations such as the ISS; scientific satellites like the Hubble; Earth observation satellites from companies like Planet Labs, Umbra, and HawkEye 360; GPS; miniature CubeSats for education and research; and military/defense satellites.

Loading next visibility...
Identifier
62599, 2025-008N
Orbit
LEO
Country
Flag of USUS
Related business
Manufacturer
SpaceX/Seattle
Mission
Operational Commercial Communications
Bus & Motor
STARLINK V2MD, Unknown motor
Mass
960 kg wet, ~910 kg dry
Launch date (UTC)
2025-01-13 (1 year ago)
Launch vehicle
FALCON 9
Launch site
Air Force Eastern Test Range (AFETR)
Object type
Payload
Rocket body
Debris
Shape & HBR
Box + 2 Pan, 18.1 m
Radar Cross Section
36.964 m², Large (>1 m²)

Expand to show TLE details & history
Last TLE update: 17 hours ago

TLE from 17 hours ago
0 STARLINK-11529
1 62599U 25008N   26129.66110722  .00130260  00000-0  10030-2 0  9999
2 62599  43.0023 118.6287 0001307 298.2825  61.7911 15.70836434 76880
Epoch: 2026-05-09T15:51Z
TLE epoch observation values (Epoch: 2026-05-09T15:51:59.663Z)
Latitude
-0.00001°
Longitude
13.15475°
Altitude
355.861 km
Speed
7.698 km/s
True Right ascension
07h 54m 30s
True Declination
0° 00' 00"
Sunlit
Object was in daylight at epoch
Visualization orbit readout
Latitude
Unknown
Longitude
Unknown
Altitude
Unknown
Speed
Unknown
Apparent Right ascension
Unknown
Apparent Declination
Unknown
Sunlit
N/A
Visualization observer readout
Local Sidereal Time
17:02:18
Azimuth
Unknown
Elevation
Unknown
Doppler factor
Unknown
Orbital elements
Apogee altitude
359.367 km
Perigee altitude
357.606 km
Semi-major axis
6,736.623 km
Eccentricity
0.00013
Inclination
43.0023°
RAAN
118.6287°
Arg. of periapsis
298.2825°
True anomaly
61.8043°
Mean anomaly
61.7911°
Eccentric anomaly
61.7977°
Mean motion
3.92536 °/min
Orbital period
91.71 mins
BSTAR
0.001003
Loading maneuver chart data...
Computing Atmospheric mass density...
Loading historical data...
Loading historical data...
Loading historical data...
Loading historical data...
Loading historical data...
Loading historical data...
Loading historical data...

Documentation

Showing up to 5 results
|